Time,TemperatureF,DewpointF,PressureIn,WindDirection,WindDirectionDegrees,WindSpeedMPH,WindSpeedGustMPH,Humidity,HourlyPrecipIn,Conditions,Clouds,dailyrainin,SoftwareType,DateUTC
2013-06-25 00:11:00,56.0,-99.9,-100.00,North,-999,-999.0,-999.0,-999,0.00,,,0.11,,2013-06-25 06:11:00,
2013-06-25 00:22:00,56.0,-99.9,-100.00,North,-999,-999.0,-999.0,-999,0.00,,,0.11,,2013-06-25 06:22:00,
2013-06-25 00:34:00,56.0,-99.9,-100.00,North,-999,-999.0,-999.0,-999,0.00,,,0.11,,2013-06-25 06:34:00,
2013-06-25 00:43:00,56.0,-99.9,-100.00,North,-999,-999.0,-999.0,-999,0.00,,,0.11,,2013-06-25 06:43:00,
2013-06-25 01:12:00,55.0,-99.9,-100.00,North,-999,-999.0,-999.0,-999,-99.99,,,0.10,,2013-06-25 07:12:00,
2013-06-25 01:22:00,55.0,-99.9,-100.00,North,-999,-999.0,-999.0,-999,-99.99,,,0.10,,2013-06-25 07:22:00,
2013-06-25 01:33:00,55.0,-99.9,-100.00,North,-999,-999.0,-999.0,-999,-99.99,,,0.10,,2013-06-25 07:33:00,
2013-06-25 01:43:00,55.0,-99.9,-100.00,North,-999,-999.0,-999.0,-999,-99.99,,,0.10,,2013-06-25 07:43:00,
2013-06-25 02:22:00,55.0,-99.9,-100.00,North,-999,-999.0,-999.0,-999,0.13,,,0.24,,2013-06-25 08:22:00,
2013-06-25 02:34:00,55.0,-99.9,-100.00,North,-999,-999.0,-999.0,-999,0.13,,,0.24,,2013-06-25 08:34:00,
2013-06-25 02:43:00,55.0,-99.9,-100.00,North,-999,-999.0,-999.0,-999,0.13,,,0.24,,2013-06-25 08:43:00,
2013-06-25 03:12:00,54.0,-99.9,-100.00,North,-999,-999.0,-999.0,-999,0.00,,,0.23,,2013-06-25 09:12:00,
2013-06-25 03:22:00,54.0,-99.9,-100.00,North,-999,-999.0,-999.0,-999,0.00,,,0.23,,2013-06-25 09:22:00,
2013-06-25 03:33:00,54.0,-99.9,-100.00,North,-999,-999.0,-999.0,-999,0.00,,,0.23,,2013-06-25 09:33:00,
2013-06-25 03:43:00,54.0,-99.9,-100.00,North,-999,-999.0,-999.0,-999,0.00,,,0.23,,2013-06-25 09:43:00,
2013-06-25 04:11:00,54.0,-99.9,-100.00,North,-999,-999.0,-999.0,-999,0.01,,,0.24,,2013-06-25 10:11:00,
2013-06-25 04:22:00,54.0,-99.9,-100.00,North,-999,-999.0,-999.0,-999,0.01,,,0.24,,2013-06-25 10:22:00,
2013-06-25 04:33:00,54.0,-99.9,-100.00,North,-999,-999.0,-999.0,-999,0.01,,,0.24,,2013-06-25 10:33:00,
2013-06-25 04:43:00,54.0,-99.9,-100.00,North,-999,-999.0,-999.0,-999,0.01,,,0.24,,2013-06-25 10:43:00,
2013-06-25 05:12:00,54.0,-99.9,-100.00,North,-999,-999.0,-999.0,-999,0.06,,,-99.99,,2013-06-25 11:12:00,
2013-06-25 05:22:00,54.0,-99.9,-100.00,North,-999,-999.0,-999.0,-999,0.06,,,-99.99,,2013-06-25 11:22:00,
2013-06-25 05:34:00,54.0,-99.9,-100.00,North,-999,-999.0,-999.0,-999,0.06,,,-99.99,,2013-06-25 11:34:00,
2013-06-25 05:43:00,54.0,-99.9,-100.00,North,-999,-999.0,-999.0,-999,0.06,,,-99.99,,2013-06-25 11:43:00,
2013-06-25 06:12:00,54.0,-99.9,-100.00,North,-999,-999.0,-999.0,-999,0.02,,,0.32,,2013-06-25 12:12:00,
2013-06-25 06:22:00,54.0,-99.9,-100.00,North,-999,-999.0,-999.0,-999,0.02,,,0.32,,2013-06-25 12:22:00,
2013-06-25 06:33:00,54.0,-99.9,-100.00,North,-999,-999.0,-999.0,-999,0.02,,,0.32,,2013-06-25 12:33:00,
2013-06-25 06:43:00,54.0,-99.9,-100.00,North,-999,-999.0,-999.0,-999,0.02,,,0.32,,2013-06-25 12:43:00,
2013-06-25 08:23:00,54.0,-99.9,-100.00,North,-999,-999.0,-999.0,-999,-99.99,,,0.33,,2013-06-25 14:23:00,
2013-06-25 08:34:00,54.0,-99.9,-100.00,North,-999,-999.0,-999.0,-999,-99.99,,,0.33,,2013-06-25 14:34:00,
2013-06-25 08:43:00,54.0,-99.9,-100.00,North,-999,-999.0,-999.0,-999,-99.99,,,0.33,,2013-06-25 14:43:00,
2013-06-25 09:22:00,55.0,-99.9,-100.00,North,-999,-999.0,-999.0,-999,0.00,,,0.33,,2013-06-25 15:22:00,
2013-06-25 09:32:00,55.0,-99.9,-100.00,North,-999,-999.0,-999.0,-999,0.00,,,0.33,,2013-06-25 15:32:00,
2013-06-25 09:44:00,55.0,-99.9,-100.00,North,-999,-999.0,-999.0,-999,0.00,,,0.33,,2013-06-25 15:44:00,
2013-06-25 10:23:00,56.0,-99.9,-100.00,North,-999,-999.0,-999.0,-999,0.00,,,-99.99,,2013-06-25 16:23:00,
2013-06-25 10:35:00,56.0,-99.9,-100.00,North,-999,-999.0,-999.0,-999,0.00,,,-99.99,,2013-06-25 16:35:00,
2013-06-25 10:44:00,56.0,-99.9,-100.00,North,-999,-999.0,-999.0,-999,0.00,,,-99.99,,2013-06-25 16:44:00,
2013-06-25 11:22:00,58.0,-99.9,-100.00,North,-999,-999.0,-999.0,-999,0.00,,,-99.99,,2013-06-25 17:22:00,
2013-06-25 11:34:00,58.0,-99.9,-100.00,North,-999,-999.0,-999.0,-999,0.00,,,-99.99,,2013-06-25 17:34:00,
2013-06-25 11:44:00,58.0,-99.9,-100.00,North,-999,-999.0,-999.0,-999,0.00,,,-99.99,,2013-06-25 17:44:00,
2013-06-25 11:45:00,58.0,-99.9,-100.00,North,-999,-999.0,-999.0,-999,0.00,,,0.26,,2013-06-25 17:45:00,
2013-06-25 12:23:00,58.0,-99.9,-100.00,North,-999,-999.0,-999.0,-999,0.00,,,0.26,,2013-06-25 18:23:00,
2013-06-25 12:34:00,58.0,-99.9,-100.00,North,-999,-999.0,-999.0,-999,0.00,,,0.26,,2013-06-25 18:34:00,
2013-06-25 13:12:00,61.0,-99.9,-100.00,North,-999,-999.0,-999.0,-999,0.00,,,0.26,,2013-06-25 19:12:00,
2013-06-25 13:23:00,61.0,-99.9,-100.00,North,-999,-999.0,-999.0,-999,0.00,,,0.26,,2013-06-25 19:23:00,
2013-06-25 13:34:00,61.0,-99.9,-100.00,North,-999,-999.0,-999.0,-999,0.00,,,0.26,,2013-06-25 19:34:00,
2013-06-25 13:44:00,61.0,-99.9,-100.00,North,-999,-999.0,-999.0,-999,0.00,,,0.26,,2013-06-25 19:44:00,
2013-06-25 14:22:00,62.0,-99.9,-100.00,North,-999,-999.0,-999.0,-999,0.00,,,0.26,,2013-06-25 20:22:00,
2013-06-25 14:33:00,62.0,-99.9,-100.00,North,-999,-999.0,-999.0,-999,0.00,,,0.26,,2013-06-25 20:33:00,
2013-06-25 14:43:00,62.0,-99.9,-100.00,North,-999,-999.0,-999.0,-999,0.00,,,0.26,,2013-06-25 20:43:00,
2013-06-25 15:11:00,67.0,-99.9,-100.00,North,-999,-999.0,-999.0,-999,0.00,,,0.25,,2013-06-25 21:11:00,
2013-06-25 15:22:00,67.0,-99.9,-100.00,North,-999,-999.0,-999.0,-999,0.00,,,0.25,,2013-06-25 21:22:00,
2013-06-25 15:34:00,67.0,-99.9,-100.00,North,-999,-999.0,-999.0,-999,0.00,,,0.25,,2013-06-25 21:34:00,
2013-06-25 15:43:00,67.0,-99.9,-100.00,North,-999,-999.0,-999.0,-999,0.00,,,0.25,,2013-06-25 21:43:00,
2013-06-25 16:12:00,69.0,-99.9,-100.00,North,-999,-999.0,-999.0,-999,0.01,,,0.26,,2013-06-25 22:12:00,
2013-06-25 16:22:00,69.0,-99.9,-100.00,North,-999,-999.0,-999.0,-999,0.01,,,0.26,,2013-06-25 22:22:00,
2013-06-25 16:34:00,69.0,-99.9,-100.00,North,-999,-999.0,-999.0,-999,0.01,,,0.26,,2013-06-25 22:34:00,
2013-06-25 16:42:00,69.0,-99.9,-100.00,North,-999,-999.0,-999.0,-999,0.01,,,0.26,,2013-06-25 22:42:00,
2013-06-25 17:22:00,66.0,-99.9,-100.00,North,-999,-999.0,-999.0,-999,-99.99,,,0.25,,2013-06-25 23:22:00,
2013-06-25 17:34:00,66.0,-99.9,-100.00,North,-999,-999.0,-999.0,-999,-99.99,,,0.25,,2013-06-25 23:34:00,
2013-06-25 17:44:00,66.0,-99.9,-100.00,North,-999,-999.0,-999.0,-999,-99.99,,,0.25,,2013-06-25 23:44:00,
2013-06-25 19:33:00,56.0,-99.9,-100.00,North,-999,-999.0,-999.0,-999,0.03,,,0.37,,2013-06-26 01:33:00,
2013-06-25 19:44:00,56.0,-99.9,-100.00,North,-999,-999.0,-999.0,-999,0.03,,,0.37,,2013-06-26 01:44:00,
2013-06-25 21:11:00,56.0,-99.9,-100.00,North,-999,-999.0,-999.0,-999,-99.99,,,-99.99,,2013-06-26 03:11:00,
2013-06-25 21:22:00,56.0,-99.9,-100.00,North,-999,-999.0,-999.0,-999,-99.99,,,-99.99,,2013-06-26 03:22:00,
2013-06-25 21:33:00,56.0,-99.9,-100.00,North,-999,-999.0,-999.0,-999,-99.99,,,-99.99,,2013-06-26 03:33:00,
2013-06-25 21:43:00,56.0,-99.9,-100.00,North,-999,-999.0,-999.0,-999,-99.99,,,-99.99,,2013-06-26 03:43:00,
2013-06-25 22:12:00,54.0,-99.9,-100.00,North,-999,-999.0,-999.0,-999,0.00,,,0.47,,2013-06-26 04:12:00,
2013-06-25 22:22:00,54.0,-99.9,-100.00,North,-999,-999.0,-999.0,-999,0.00,,,0.47,,2013-06-26 04:22:00,
2013-06-25 22:33:00,54.0,-99.9,-100.00,North,-999,-999.0,-999.0,-999,0.00,,,0.47,,2013-06-26 04:33:00,
2013-06-25 22:43:00,54.0,-99.9,-100.00,North,-999,-999.0,-999.0,-999,0.00,,,0.47,,2013-06-26 04:43:00,
2013-06-25 23:11:00,53.0,-99.9,-100.00,North,-999,-999.0,-999.0,-999,0.00,,,0.44,,2013-06-26 05:11:00,
2013-06-25 23:22:00,53.0,-99.9,-100.00,North,-999,-999.0,-999.0,-999,0.00,,,0.44,,2013-06-26 05:22:00,
2013-06-25 23:34:00,53.0,-99.9,-100.00,North,-999,-999.0,-999.0,-999,0.00,,,0.44,,2013-06-26 05:34:00,
2013-06-25 23:43:00,53.0,-99.9,-100.00,North,-999,-999.0,-999.0,-999,0.00,,,0.44,,2013-06-26 05:43:00,